Regional Weather Roundup
Issued by NWS

Home | Current Version | Previous Version | Graphics & Text | Print | Product List | Glossary On
Versions: 1 2 3 4 5 6 7 8 9 10 11 12 13 14 15 16 17 18 19 20 21 22 23 24 25 26 27 28 29 30 31 32 33 34 35 36 37 38 39 40 41 42 43 44 45 46 47 48 49 50
000
ASUS43 KMKX 282121
RWRWI

WISCONSIN REGIONAL WEATHER ROUNDUP
NATIONAL WEATHER SERVICE MILWAUKEE/SULLIVAN WI
400 PM CDT WED SEP 28 2016

NOTE: "FAIR" INDICATES FEW OR NO CLOUDS BELOW 12,000 FEET WITH NO
SIGNIFICANT WEATHER AND/OR OBSTRUCTIONS TO VISIBILITY.

WIZ001-002-006>008-014>016-023>028-282200-
NORTHWEST WISCONSIN

CITY           SKY/WX    TMP DP  RH WIND       PRES   REMARKS
SUPERIOR ARPT  CLOUDY    57  51  81 NE8       30.28R
ASHLAND        CLOUDY    56  51  84 NE13      30.27R
HAYWARD        CLOUDY    58  48  69 N16       30.25R
SIREN          CLOUDY    59  49  69 NE13      30.25R
CUMBERLAND     CLOUDY    55  46  71 NE13      30.23R
RICE LAKE      CLOUDY    60  49  67 N13       30.23R
CHETEK         NOT AVBL
LADYSMITH      PTSUNNY   61  52  72 N12       30.21R
EAU CLAIRE     CLOUDY    63  51  65 N9        30.17R
MENOMONIE      CLOUDY    64  50  60 N10       30.19R
NEW RICHMOND   CLOUDY    62  48  62 N12       30.23R
OSCEOLA        CLOUDY    60  50  70 N8        30.26R
$$

WIZ003>005-009-010-017-018-282200-
NORTH CENTRAL WISCONSIN

CITY           SKY/WX    TMP DP  RH WIND       PRES   REMARKS
MANITOWISH WTR NOT AVBL
ARBOR VITAE    CLOUDY    59  53  79 NE6       30.20R
WOODRUFF       CLOUDY    59  53  79 NE6       30.20R
RHINELANDER    CLOUDY    60  49  66 NE10      30.18R
EAGLE RIVER    CLOUDY    59  49  68 NE6       30.18R
LAND O LAKES   CLOUDY    56  54  92 N8        30.22R
PHILLIPS       CLOUDY    59  52  78 N13       30.18R
TOMAHAWK       CLOUDY    58  48  67 NE7       30.18R
MEDFORD        CLOUDY    59  49  70 NE6       30.16R
MERRILL        CLOUDY    60  49  67 NE8       30.17R
$$

WIZ029-030-035-036-043>047-282200-
CENTRAL WISCONSIN

CITY           SKY/WX    TMP DP  RH WIND       PRES   REMARKS
WAUSAU         CLOUDY    62  47  57 N7        30.13R
MOSINEE        PTSUNNY   61  48  63 NE10G16   30.15R
MARSHFIELD     PTSUNNY   63  48  58 N7        30.14R
STEVENS POINT  CLOUDY    58  49  72 NE8       30.14S
WAUPACA        PTSUNNY   63  51  66 NE7G22    30.12R
WAUTOMA        CLOUDY    59  53  80 NE9       30.12R
WISC RAPIDS    CLOUDY    62  51  67 NE8       30.14R
CAMP DOUGLAS   PTSUNNY   61  50  67 NE12      30.12R
$$

WIZ011>013-019>022-031-037>040-048>050-282200-
NORTHEAST WISCONSIN

CITY           SKY/WX    TMP DP  RH WIND       PRES   REMARKS
ANTIGO         CLOUDY    60  48  65 NE12      30.16R
SHAWANO        MOSUNNY   64  52  64 NE10G16   30.13R
OCONTO         NOT AVBL
STURGEON BAY   SUNNY     63  50  62 NE13      30.12R
GREEN BAY      SUNNY     63  52  67 NE16G22   30.10R
MANITOWOC      MOSUNNY   62  49  62 MISG      30.09R
APPLETON       PTSUNNY   61  45  55 NE12G17   30.08R
CLINTONVILLE   PTSUNNY   59  48  67 NE9G18    30.11
OSHKOSH        SUNNY     62  48  60 NE17      30.08R
$$

WIZ032>034-041-042-053>061-282200-
SOUTHWEST WISCONSIN

CITY           SKY/WX    TMP DP  RH WIND       PRES   REMARKS
LA CROSSE      LGT RAIN  62  54  74 N12       30.14R
SPARTA         CLOUDY    63  51  64 NE9       30.14R
VIROQUA        CLOUDY    59  53  79 NW7       30.13R
BOSCOBEL       CLOUDY    65  49  56 N9        30.10R
PRAIRIE DU CHI CLOUDY    62  50  66 N8        30.11R
PLATTEVILLE    CLOUDY    63  49  60 N18G24    30.08R
$$

WIZ056-057-062-063-064-067-068-282200-
SOUTH CENTRAL WISCONSIN

CITY           SKY/WX    TMP DP  RH WIND       PRES   REMARKS
REEDSBURG      NOT AVBL
BARABOO/DELLS  CLOUDY    58  50  75 NE8       30.10R
LONE ROCK      PTSUNNY   65  50  58 N12G24    30.09R
MINERAL POINT  CLOUDY    59  54  82 N9        30.08R
MADISON        PTSUNNY   59  54  83 N10       30.07R
MIDDLETON      PTSUNNY   59  54  83 N9        30.08R
WATERTOWN      SUNNY     62  48  60 NE9       30.05R
MONROE         LGT RAIN  55  52  88 N10G18    30.06R
JANESVILLE     PTSUNNY   61  55  82 N10       30.02R
$$

WIZ051-052-058>065-066-070>072-282200-
SOUTHEAST WISCONSIN

CITY           SKY/WX    TMP DP  RH WIND       PRES   REMARKS
MILWAUKEE      PTSUNNY   60  51  72 N15G28    30.04R
WAUKESHA       PTSUNNY   61  48  63 NE7       30.04R
MILWAUKEE/TIMM PTSUNNY   59  46  63 NE14G20   30.05R
RACINE         MOSUNNY   58  51  78 N16       30.04R
BURLINGTON     CLOUDY    61  46  59 N14       30.02R
KENOSHA        CLOUDY    60  49  66 N17G23    30.02R
FOND DU LAC    SUNNY     63  51  65 N15G24    30.08R
SHEBOYGAN      SUNNY     61  50  67 NE21      30.08R
WEST BEND      MOSUNNY   61  46  59 N10G18    30.05R
JUNEAU         MOSUNNY   62  49  63 N13       30.07R
$$

LSZ147-162-282200-
LAKE SUPERIOR

STATION/POSITION TIME  TEMP    WIND        PRES    WAVE
                       AIR SEA DIR/SP/G            HT/PER
                 (UTC) (F)     (DEG/KT/KT) (MB)    (FT/S)
W MID LAKE BUOY  2050   56 53   20/ 10/ 12 1024.5R   3/ 6
DEVILS ISLAND    2100   54      40/ 13/ 14 1025.4R
SAXON HARBOR     2000   57      40/ 14/ 17 1023.4R
$$

LMZ867-665-643>646-282200-
LAKE MICHIGAN

STATION/POSITION TIME  TEMP    WIND        PRES    WAVE
                       AIR SEA DIR/SP/G            HT/PER
                 (UTC) (F)     (DEG/KT/KT) (MB)    (FT/S)
CHAMBERS ISLAND  2000   61      30/ 17/ 21 1019.3R
S GREEN BAY BUOY 2000   62 62   50/ 14/ 16 1018.6R
N MID LAKE BUOY  2050   62 66   30/ 17/ 21 1019.2R   3/ 4
NORTHPORT PIER   2000   62      60/ 15/ 20 1019.6R
SISTER BAY       2008   70      20/ 10/ 15   N/A
KEWAUNEE LAKESHO 2000   60      20/  7/ 13 1018.2R
SHEBOYGAN LAKESH 2100   59      20/ 21/ 23 1018.4R
PORT WASHINGTON  2000   61      30/ 12/ 18 1017.6R
ATWATER BUOY     2100   56 54   20/ 19/ 23 1017.1R
MILWAUKEE LAKESH 2010   58     360/ 15/ 18   N/A
S MID LAKE BUOY  2050   64 69   50/ 19/ 23 1014.3R   4/ 5
KENOSHA   LAKESH 2100   57     360/ 21/ 24 1015.9R
$$

TC  - TEMPERATURE IN CELSIUS
VSB - VISIBILITY IN STATUTE MILES
WCI - WIND CHILL INDEX
HX  - HEAT INDEX




USA.gov is the U.S. government's official web portal to all federal, state and local government web resources and services.